2001 CA21
ephemeris date magn radius delta ra dec elong phase
Today14 Jul 202624.73.108 AU3.894 AU05h02m+23°50'34.4°10.6°
2001 CA21 - 2026-07-14
astro.vanbuitenen.nl


 
-1 year
-1 month
-1 day
Now
+1 day
+1 month
+1 year

The interactive orbit chart above shows the body's path through the solar system and its position at the given date. Green and blue lines are shown perpendicular to the ecliptic plane: Green if the path is above the ecliptic plane, blue if it is below. (Left-click and drag to rotate the view; Right-click and drag to move the view; Use scroll wheel to zoom in our out.)

The orbital elements of 2001 CA21 are:

            e (Eccentricity)                : 0.8289717
            a (Semimajor axis)              : 2.1131443
            i (Inclination)                 : 5.25828
            Ω (Longitude of ascending node) : 51.79975
            ω (Argument of perihelion)      : 212.75474
            M (Mean anomaly)                : 343.17872
            Epoch                           : 2001 Jan 31

            L (Longitude of perihelion)     : 84.44464
            B (Latitude of perihelion)      : -2.84213
            P (Orbital period in years)     : 3.07            
        

The light curve chart below shows the estimated development of the minor planet's magnitude.


The all-sky chart below shows the path of the minor planet over the same period as the light curve. The current position is marked yellow.





The following chart shows the path of the minor planet in the next few days. The field of view is optimized for (~10x50) binoculars and finderscopes.




Ephemerides:
Date       Time       RA (2000)    DEC (2000)    delta   radius  elong  phase   PA    magn
2026-07-14 00:00 UT   05 02 35.7   +23 50 20     3.894    3.108   34.4   10.6   266   24.7 
2026-07-14 07:23 UT   05 02 56.2   +23 50 57     3.893    3.110   34.6   10.7   266   24.7 
2026-07-15 00:00 UT   05 03 41.9   +23 52 20     3.891    3.114   35.1   10.8   266   24.7 
2026-07-16 00:00 UT   05 04 47.7   +23 54 19     3.887    3.119   35.8   11.0   266   24.7 
2026-07-17 00:00 UT   05 05 52.9   +23 56 15     3.883    3.125   36.5   11.1   266   24.7 
2026-07-18 00:00 UT   05 06 57.7   +23 58 09     3.879    3.130   37.2   11.3   266   24.7 
2026-07-19 00:00 UT   05 08 02.0   +24 00 01     3.875    3.136   37.9   11.5   266   24.7 
2026-07-20 00:00 UT   05 09 05.9   +24 01 51     3.871    3.141   38.6   11.6   266   24.7 
2026-07-21 00:00 UT   05 10 09.2   +24 03 39     3.866    3.146   39.3   11.8   266   24.7 
2026-07-22 00:00 UT   05 11 12.0   +24 05 25     3.861    3.152   40.0   12.0   267   24.7 
2026-07-23 00:00 UT   05 12 14.3   +24 07 10     3.856    3.157   40.7   12.1   267   24.8 
2026-07-24 00:00 UT   05 13 16.1   +24 08 52     3.851    3.162   41.4   12.3   267   24.8 
2026-07-25 00:00 UT   05 14 17.3   +24 10 33     3.846    3.167   42.2   12.4   267   24.8 
2026-07-26 00:00 UT   05 15 18.0   +24 12 12     3.840    3.173   42.9   12.6   267   24.8 
2026-07-27 00:00 UT   05 16 18.2   +24 13 49     3.835    3.178   43.6   12.7   267   24.8 
2026-07-28 00:00 UT   05 17 17.8   +24 15 24     3.829    3.183   44.3   12.9   267   24.8 
2026-07-29 00:00 UT   05 18 16.9   +24 16 57     3.823    3.188   45.1   13.0   267   24.8 
2026-07-30 00:00 UT   05 19 15.4   +24 18 29     3.817    3.193   45.8   13.2   267   24.8 
2026-07-31 00:00 UT   05 20 13.4   +24 19 60     3.811    3.198   46.5   13.3   267   24.8 
2026-08-01 00:00 UT   05 21 10.8   +24 21 28     3.804    3.203   47.3   13.5   267   24.8 
2026-08-02 00:00 UT   05 22 07.6   +24 22 56     3.797    3.208   48.0   13.6   267   24.8 
2026-08-03 00:00 UT   05 23 03.8   +24 24 21     3.791    3.213   48.7   13.7   267   24.8 
2026-08-04 00:00 UT   05 23 59.4   +24 25 46     3.784    3.218   49.5   13.9   268   24.8 
2026-08-05 00:00 UT   05 24 54.4   +24 27 08     3.776    3.223   50.2   14.0   268   24.8 
2026-08-06 00:00 UT   05 25 48.7   +24 28 30     3.769    3.228   51.0   14.1   268   24.8 
2026-08-07 00:00 UT   05 26 42.5   +24 29 50     3.762    3.233   51.7   14.3   268   24.8 
2026-08-08 00:00 UT   05 27 35.6   +24 31 08     3.754    3.238   52.5   14.4   268   24.8 
2026-08-09 00:00 UT   05 28 28.0   +24 32 25     3.746    3.243   53.3   14.5   268   24.8 
2026-08-10 00:00 UT   05 29 19.8   +24 33 41     3.738    3.248   54.0   14.6   268   24.8 
2026-08-11 00:00 UT   05 30 10.9   +24 34 56     3.730    3.253   54.8   14.7   268   24.8 
2026-08-12 00:00 UT   05 31 01.3   +24 36 10     3.722    3.258   55.6   14.9   268   24.8 
2026-08-13 00:00 UT   05 31 51.0   +24 37 22     3.713    3.263   56.3   15.0   268   24.8 


    Terminology:
            
    delta:  distance between minor planet and earth in AU
    radius: distance between minor planet and sun in AU
    magn:   magnitude (brightness) estimate    
    ra:     right ascension in hours (24h = 360deg)
    dec:    declination in degrees
    elong:  elongation in degrees (angle sun-earth-minor planet)    
    phase:  phase angle in degrees (angle sun-minor planet-earth)        
    AU:     Astronomical Unit (mean distance between earth and sun: 149597870.7 km
    

Orbital elements provided by the MPC (Minor Planet Center).
Calculations by a modified version of AAPlus, a C# implementation of the AA+ project by PJ Naughter from the algorithms presented in the book "Astronomical Algorithms" by Jean Meeus.
NGC2000 dso catalog and star labels from VizieR as provided by the Strasbourg astronomical Data Center.
Tycho2 catalog from the ESO archive.